Cloud_Cover
72 100 50 56 34 48 60 78 100 100 100 100 100 71 11 1 2 5 5 1 3 5 6 64 91 99 13 13 5 4 0 0
5 5 4 1 5 87 100 100 100 51 47 98 82 49 5 5 5 5 4 54 99 86 46 5 9 4 5 5 5 3 0 0
6 0 2 44 98 46 42 8 74 97 75 40 60 5 5 5 5 3 5 42 8 0 0 1 24 15 4 1 0 0 0 2
5 5 40 46 4 2 4 2 0 0 4 5 5 5 5 5 16 10 5 5 1 0 0 2 1 1 0 0 0 0 0 0
85 7 5 5 23 1 1 0 0 0 2 2 2 38 8 7 4 1 2 2 4 5 5 5 5 12 4 5 2 0 0 5
81 14 10 6 5 6 5 5 5 4 78 100 98 92 100 100 100 98 100 100 100 100 100 100 94 90 52 0 0 2 5 14
100 100 100 98 86 97 96 52 5 31 82 100 100 100 100 100 100 100 100 100 100 73 13 38 6 0 0 0 0 5 5 5
100 100 100 100 100 93 8 5 5 91 100 100 100 100 100 100 100 100 100 67 56 74 3 0 0 0 0 0 5 5 5 3
100 100 100 100 97 7 6 21 99 100 100 100 100 100 100 100 100 98 8 4 0 0 0 0 0 0 0 0 0 0 0 0
5 5 66 5 5 10 88 93 100 100 100 100 100 92 95 23 5 5 5 5 4 0 0 3 5 5 0 5 3 5 0 0
0 4 5 38 68 7 5 5 5 16 34 17 5 5 5 5 5 5 5 4 1 4 33 62 95 84 30 41 64 21 11 5
60 68 34 64 19 26 76 5 5 19 5 5 11 5 5 5 5 5 5 9 86 6 35 100 55 88 100 100 100 100 100 48
33 53 99 89 97 80 57 88 100 12 10 5 5 4 5 5 38 83 99 95 90 70 59 65 99 93 100 100 100 100 100 100
24 31 80 72 95 95 100 81 5 5 5 5 5 5 15 79 84 22 35 4 0 5 28 99 100 100 100 100 100 100 72 26
5 60 96 100 100 96 57 5 5 5 4 5 5 5 6 46 39 1 0 0 0 0 89 100 100 100 100 100 64 5 6 20
95 100 100 100 80 30 5 5 5 5 5 5 5 5 5 0 0 0 1 4 0 30 92 31 100 100 100 100 17 58 5 5
99 100 99 48 5 5 5 5 5 5 5 5 5 5 0 0 0 0 0 4 75 100 100 100 100 100 100 100 65 5 5 5
95 14 5 5 5 56 5 5 5 5 23 6 5 3 0 0 0 5 0 4 99 100 100 100 100 99 100 20 5 5 52 94
5 5 5 5 5 13 24 14 5 5 5 5 5 0 0 0 5 5 48 65 88 100 100 100 96 100 12 7 5 5 5 5